Moultrie, GA

1:38 AM EST on January 24, 2018 (GMT -0500)
Moultrie Municipal

Weather History for KMGR - November, 2012

Change the Weather History Date:

Wednesday, November 14, 2012

  Actual Average (KMUL) Record (KMUL)
Temperature  
Mean Temperature 58 °F -  
Max Temperature 62 °F 70 °F 88 °F (1938)
Min Temperature 53 °F 44 °F 27 °F (1968)
Degree Days  
Heating Degree Days 8    
Growing Degree Days 8 (Base 50)    
Moisture  
Dew Point 54 °F    
Average Humidity 85    
Maximum Humidity 100    
Minimum Humidity 63    
Precipitation  
Precipitation 0.00 in - - ()
Sea Level Pressure  
Sea Level Pressure 30.24 in    
Wind  
Wind Speed 5 mph (NE)    
Max Wind Speed 12 mph    
Max Gust Speed -    
Visibility 9 miles    
Events Rain    
Averages and records for this station are not official NWS values.
T = Trace of Precipitation, MM = Missing Value Source: NWS Daily Summary

Daily Weather History Graph

Daily Weather History Graph

Search for Another Location

Airport or City:

Trip Planner

Search our weather history database for the weather conditions in past years. The results will help you decide how hot, cold, wet, or windy it might be!

Date:

Astronomy

Nov. 14, 2012 Rise Set
Actual Time 7:01 AM EST 5:37 PM EST
Civil Twilight 6:36 AM EST 6:02 PM EST
Nautical Twilight 6:06 AM EST 6:32 PM EST
Astronomical Twilight 5:38 AM EST 7:00 PM EST
Moon 7:46 AM EST (11/14) 6:29 PM EST (11/14)
Length of Visible Light 11h 26m
Length of Day
10h 35m
New Moon, 1% of the Moon is Illuminated
Nov 14
New Moon
Nov 20
First Quarter
Nov 28
Full
Dec 6
Last Quarter
Dec 13
New

Hourly Weather History & Observations

Time (EST) Temp. Dew Point Humidity Pressure Visibility Wind Dir Wind Speed Gust Speed Precip Events Conditions
12:15 AM 59.0 °F 46.4 °F 63% 30.22 in 10.0 mi NE 4.6 mph - N/A   Mostly Cloudy
12:35 AM 59.0 °F 48.2 °F 67% 30.21 in 10.0 mi NNE 4.6 mph - N/A   Overcast
12:55 AM 59.0 °F 50.0 °F 72% 30.21 in 10.0 mi NNE 4.6 mph - N/A   Overcast
1:15 AM 59.0 °F 51.8 °F 77% 30.21 in 10.0 mi NNE 4.6 mph - N/A   Overcast
1:35 AM 59.0 °F 51.8 °F 77% 30.21 in 10.0 mi NE 4.6 mph - N/A   Overcast
1:55 AM 60.8 °F 53.6 °F 77% 30.20 in 10.0 mi NE 4.6 mph - N/A   Overcast
2:15 AM 60.8 °F 55.4 °F 82% 30.20 in 10.0 mi NE 3.5 mph - N/A   Overcast
2:35 AM 60.8 °F 55.4 °F 82% 30.20 in 10.0 mi Calm Calm - N/A   Overcast
2:55 AM 60.8 °F 57.2 °F 88% 30.20 in 10.0 mi Calm Calm - N/A   Overcast
3:15 AM 60.8 °F 57.2 °F 88% 30.20 in 10.0 mi NE 5.8 mph - N/A   Overcast
3:35 AM 62.6 °F 59.0 °F 88% 30.20 in 10.0 mi NE 4.6 mph - N/A   Overcast
3:55 AM 60.8 °F 57.2 °F 88% 30.20 in 10.0 mi ENE 6.9 mph - N/A   Overcast
4:15 AM 60.8 °F 57.2 °F 88% 30.20 in 10.0 mi ENE 6.9 mph - N/A   Overcast
4:35 AM 60.8 °F 57.2 °F 88% 30.21 in 10.0 mi ENE 5.8 mph - N/A   Overcast
4:55 AM 60.8 °F 57.2 °F 88% 30.21 in 10.0 mi NE 6.9 mph - N/A   Overcast
5:15 AM 60.8 °F 55.4 °F 82% 30.22 in 10.0 mi NE 4.6 mph - N/A   Overcast
5:35 AM 60.8 °F 55.4 °F 82% 30.22 in 10.0 mi NE 6.9 mph - N/A   Overcast
5:55 AM 60.8 °F 55.4 °F 82% 30.23 in 10.0 mi NE 8.1 mph - N/A   Overcast
6:15 AM 60.8 °F 55.4 °F 82% 30.23 in 10.0 mi NE 4.6 mph - N/A   Overcast
6:35 AM 60.8 °F 55.4 °F 82% 30.24 in 10.0 mi NNE 4.6 mph - N/A   Overcast
6:55 AM 59.0 °F 55.4 °F 88% 30.25 in 10.0 mi ENE 5.8 mph - N/A   Overcast
7:15 AM 59.0 °F 55.4 °F 88% 30.25 in 10.0 mi ENE 8.1 mph - N/A   Overcast
7:35 AM 59.0 °F 55.4 °F 88% 30.26 in 10.0 mi NE 8.1 mph - N/A   Overcast
7:55 AM 59.0 °F 55.4 °F 88% 30.26 in 10.0 mi NE 6.9 mph - N/A   Overcast
8:15 AM 59.0 °F 53.6 °F 82% 30.27 in 10.0 mi NE 11.5 mph - N/A   Overcast
8:35 AM 59.0 °F 53.6 °F 82% 30.28 in 10.0 mi NE 8.1 mph - N/A   Overcast
8:55 AM 59.0 °F 53.6 °F 82% 30.28 in 10.0 mi NE 8.1 mph - N/A   Overcast
9:15 AM 59.0 °F 53.6 °F 82% 30.29 in 10.0 mi ENE 9.2 mph - N/A   Overcast
9:35 AM 59.0 °F 53.6 °F 82% 30.29 in 10.0 mi ENE 4.6 mph - N/A   Overcast
9:55 AM 59.0 °F 53.6 °F 82% 30.29 in 10.0 mi ENE 4.6 mph - N/A   Overcast
10:15 AM 57.2 °F 53.6 °F 88% 30.30 in 7.0 mi ENE 6.9 mph - N/A   Overcast
10:35 AM 57.2 °F 53.6 °F 88% 30.30 in 7.0 mi NE 8.1 mph - N/A   Overcast
10:55 AM 57.2 °F 53.6 °F 88% 30.30 in 7.0 mi ENE 5.8 mph - N/A   Overcast
11:15 AM 57.2 °F 53.6 °F 88% 30.30 in 7.0 mi ENE 8.1 mph - N/A   Overcast
11:35 AM 57.2 °F 53.6 °F 88% 30.29 in 7.0 mi East 5.8 mph - N/A   Overcast
11:55 AM 57.2 °F 53.6 °F 88% 30.28 in 7.0 mi NE 4.6 mph - N/A   Overcast
12:15 PM 57.2 °F 53.6 °F 88% 30.27 in 7.0 mi NE 8.1 mph - N/A   Overcast
12:35 PM 57.2 °F 53.6 °F 88% 30.26 in 7.0 mi East 5.8 mph - N/A   Overcast
12:55 PM 57.2 °F 53.6 °F 88% 30.26 in 7.0 mi East 5.8 mph - N/A   Overcast
1:15 PM 59.0 °F 53.6 °F 82% 30.24 in 7.0 mi ENE 5.8 mph - N/A   Overcast
1:35 PM 59.0 °F 53.6 °F 82% 30.24 in 10.0 mi East 4.6 mph - N/A   Overcast
1:55 PM 59.0 °F 53.6 °F 82% 30.23 in 10.0 mi ESE 6.9 mph - N/A   Overcast
2:15 PM 59.0 °F 53.6 °F 82% 30.23 in 10.0 mi NE 6.9 mph - N/A   Overcast
2:35 PM 59.0 °F 53.6 °F 82% 30.23 in 10.0 mi East 5.8 mph - N/A   Overcast
2:55 PM 59.0 °F 53.6 °F 82% 30.22 in 10.0 mi East 5.8 mph - N/A   Overcast
3:15 PM 59.0 °F 53.6 °F 82% 30.22 in 10.0 mi NE 4.6 mph - N/A   Overcast
3:35 PM 59.0 °F 53.6 °F 82% 30.21 in 10.0 mi NE 4.6 mph - N/A   Overcast
3:55 PM 59.0 °F 53.6 °F 82% 30.22 in 10.0 mi ENE 5.8 mph - N/A   Overcast
4:15 PM 59.0 °F 53.6 °F 82% 30.22 in 10.0 mi Calm Calm - N/A   Overcast
4:35 PM 59.0 °F 53.6 °F 82% 30.21 in 10.0 mi Calm Calm - N/A   Overcast
4:55 PM 59.0 °F 53.6 °F 82% 30.22 in 10.0 mi NNE 5.8 mph - N/A   Overcast
5:15 PM 59.0 °F 53.6 °F 82% 30.22 in 10.0 mi NE 4.6 mph - N/A   Overcast
5:35 PM 59.0 °F 53.6 °F 82% 30.22 in 10.0 mi NE 4.6 mph - N/A   Overcast
5:55 PM 59.0 °F 53.6 °F 82% 30.23 in 10.0 mi ENE 3.5 mph - N/A   Overcast
6:15 PM 59.0 °F 53.6 °F 82% 30.23 in 10.0 mi ENE 3.5 mph - N/A   Overcast
6:35 PM 59.0 °F 53.6 °F 82% 30.23 in 10.0 mi East 4.6 mph - N/A Rain Light Rain
6:55 PM 57.2 °F 53.6 °F 88% 30.24 in 10.0 mi NE 5.8 mph - N/A Rain Light Rain
7:15 PM 57.2 °F 53.6 °F 88% 30.23 in 7.0 mi ENE 8.1 mph - N/A   Overcast
7:35 PM 57.2 °F 53.6 °F 88% 30.25 in 10.0 mi NE 6.9 mph - N/A   Overcast
7:55 PM 57.2 °F 53.6 °F 88% 30.25 in 10.0 mi East 6.9 mph - N/A   Overcast
8:15 PM 55.4 °F 53.6 °F 94% 30.25 in 7.0 mi ENE 4.6 mph - N/A   Overcast
8:35 PM 55.4 °F 53.6 °F 94% 30.25 in 10.0 mi East 4.6 mph - N/A   Overcast
8:55 PM 55.4 °F 53.6 °F 94% 30.25 in 10.0 mi Calm Calm - N/A   Overcast
9:15 PM 55.4 °F 53.6 °F 94% 30.24 in 7.0 mi ENE 3.5 mph - N/A   Overcast
9:35 PM 55.4 °F 53.6 °F 94% 30.25 in 4.0 mi NE 3.5 mph - N/A   Overcast
9:55 PM 55.4 °F 53.6 °F 94% 30.25 in 2.0 mi East 3.5 mph - N/A   Overcast
10:15 PM 55.4 °F 53.6 °F 94% 30.24 in 2.5 mi Calm Calm - N/A   Overcast
10:35 PM 55.4 °F 53.6 °F 94% 30.24 in 2.5 mi NE 3.5 mph - N/A   Overcast
10:55 PM 53.6 °F 53.6 °F 100% 30.24 in 3.0 mi NE 3.5 mph - N/A   Overcast
11:15 PM 55.4 °F 53.6 °F 94% 30.25 in 2.5 mi Calm Calm - N/A   Overcast
11:35 PM 55.4 °F 53.6 °F 94% 30.24 in 1.8 mi NNE 3.5 mph - N/A   Overcast
11:55 PM 53.6 °F 53.6 °F 100% 30.23 in 1.8 mi NE 4.6 mph - N/A   Overcast